Regional Weather Roundup
Issued by NWS

Home | Current Version | Previous Version | Graphics & Text | Print | Product List | Glossary On
Versions: 1 2 3 4 5 6 7 8 9 10 11 12 13 14 15 16 17 18 19 20 21 22 23 24 25 26 27 28 29 30 31 32 33 34 35 36 37 38 39 40 41 42 43 44 45 46 47 48 49 50
000
ASUS43 KDTX 170610
RWRMI
MICHIGAN HOURLY REGIONAL WEATHER ROUNDUP
NATIONAL WEATHER SERVICE DETROIT/PONTIAC MI
100 AM EST WED JAN 17 2018

NOTE: "FAIR" INDICATES FEW OR NO CLOUDS BELOW 12,000 FEET WITH NO
SIGNIFICANT WEATHER AND/OR OBSTRUCTION TO VISIBILITY.

MIZ047>049-052>055-059>063-066>070-074>076-081>083-170700-
SOUTHEAST LOWER MICHIGAN

CITY           SKY/WX    TMP DP  RH WIND       PRES   REMARKS
ADRIAN         FLURRIES   1  -2  87 W6        30.46F WCI -10
6HR MIN TEMP:  -3; 6HR MAX TEMP:   3; 6HR PCP: TRACE;

ALMA           FAIR       3   1  91 SW3       30.44S
6HR MIN TEMP:  -1; 6HR MAX TEMP:  12;

ANN ARBOR      CLOUDY     3  -1  83 SW3       30.44F
BAD AXE        FAIR      -6 -11  81 CALM      30.40S
6HR MIN TEMP:  -6; 6HR MAX TEMP:  17;

CARO           FAIR      -2  -4  87 CALM      30.41S
DETROIT CITY   CLOUDY    10   5  80 W8        30.44F WCI  -2
6HR MIN TEMP:  10; 6HR MAX TEMP:  13; 6HR PCP: TRACE;

DETROIT        FLURRIES   7   2  80 SW9       30.46F WCI  -7
6HR MIN TEMP:   7; 6HR MAX TEMP:   9; 6HR PCP: TRACE;

FLINT          FAIR       4   2  91 SW5       30.42F WCI  -5
6HR MIN TEMP:   0; 6HR MAX TEMP:  15; 6HR PCP: TRACE;

GROSSE ILE     FAIR       6   1  82 W6        30.46S WCI  -5
6HR MIN TEMP:   6; 6HR MAX TEMP:   8;

HILLSDALE      LGT SNOW   5   1  85 CALM      30.41F
HOWELL         CLOUDY     9   7  92 W7        30.41F WCI  -2
6HR MIN TEMP:   4; 6HR MAX TEMP:   9;


CITY           SKY/WX    TMP DP  RH WIND       PRES   REMARKS
JACKSON        CLOUDY     6   3  87 SW6       30.43F WCI  -4
6HR MIN TEMP:   1; 6HR MAX TEMP:   6; 6HR PCP: TRACE;

LAMBERTVILLE   FLURRIES   5   1  84 SW3       30.48S
6HR MIN TEMP:   4; 6HR MAX TEMP:   6;

LANSING        MOCLDY     7   5  91 SW7       30.44F WCI  -5
6HR MIN TEMP:   6; 6HR MAX TEMP:  11; 6HR PCP: TRACE;

LAPEER         MOCLDY     9   6  89 W6        30.41S WCI  -1
6HR MIN TEMP:   5; 6HR MAX TEMP:  17;

MASON          LGT SNOW  10   4  77 SW3       30.43F
6HR MIN TEMP:   4; 6HR MAX TEMP:  11;

MONROE         MOCLDY     5   0  77 W6        30.46F WCI  -5
6HR MIN TEMP:   3; 6HR MAX TEMP:   6;

MT. CLEMENS    FAIR       9   7  93 W9          N/A  WCI  -4
6HR MIN TEMP:   9; 6HR MAX TEMP:  17; 6HR PCP: TRACE;

PONTIAC        FOG        6   4  91 W6        30.39F VSB 1   WCI  -4
6HR MIN TEMP:   6; 6HR MAX TEMP:  11; 6HR PCP: TRACE;

PORT HOPE        N/A     11   5  77 W5        30.38S WCI   3
6HR MIN TEMP:  11; 6HR MAX TEMP:  20;

PORT HURON     FAIR      12   9  85 CALM      30.42S
TRI CITIES     FAIR       7   4  87 MISG      30.43F
6HR MIN TEMP:   7; 6HR MAX TEMP:  18;

MIDLAND        FAIR       4   0  86 CALM      30.43S
6HR MIN TEMP:   3; 6HR MAX TEMP:  19;

TROY           FAIR       9   5  84 W7        30.45S WCI  -2
SAGINAW HB     FAIR       7   5  92 CALM      30.43S
$$
MIZ043>046-050>051-056>058-064>065-071>073-077>080-170700-
SOUTHWEST LOWER MICHIGAN

CITY           SKY/WX    TMP DP  RH WIND       PRES   REMARKS
BATTLE CREEK   FAIR       0  -1  96 SW5       30.45S WCI -10
6HR MIN TEMP:   0; 6HR MAX TEMP:   6;

BENTON HARBOR  CLOUDY     6   2  83 E5        30.48S WCI  -3
6HR MIN TEMP:   4; 6HR MAX TEMP:  14; 6HR PCP:  0.01;

BIG RAPIDS     CLOUDY     4   0  81 CALM      30.40F
6HR MIN TEMP:   1; 6HR MAX TEMP:  16;

COLDWATER      FAIR       1  -2  89 CALM      30.45F
6HR MIN TEMP:   0; 6HR MAX TEMP:   4;

FREMONT        CLOUDY    12   4  69 CALM      30.44S
6HR MIN TEMP:  10; 6HR MAX TEMP:  17;

HOLLAND        CLOUDY     6   2  83 CALM      30.46F
6HR MIN TEMP:   4; 6HR MAX TEMP:  14;

GRAND RAPIDS   FAIR       9   5  84 W7        30.44F WCI  -2
6HR MIN TEMP:   7; 6HR MAX TEMP:  15;

IONIA          FAIR       4   0  85 SW3       30.43F
6HR MIN TEMP:   4; 6HR MAX TEMP:  14;

KALAMAZOO      FAIR       1  -3  83 CALM      30.46F
6HR MIN TEMP:   1; 6HR MAX TEMP:   9;

LUDINGTON      FLURRIES  16  14  92 S3        30.42F
6HR MIN TEMP:  16; 6HR MAX TEMP:  18;

MARSHALL       FAIR       1  -2  87 CALM      30.44F
6HR MIN TEMP:   0; 6HR MAX TEMP:   4;

MOUNT PLEASANT FAIR       4  -1  83 CALM      30.42S
6HR MIN TEMP:   3; 6HR MAX TEMP:  19;

MUSKEGON       CLOUDY    15   8  73 CALM      30.47S
6HR MIN TEMP:  11; 6HR MAX TEMP:  19;

SOUTH HAVEN    FAIR       0  -4  82 CALM      30.47F
$$
MIZ016>042-170700-
NORTHERN LOWER MICHIGAN

CITY           SKY/WX    TMP DP  RH WIND       PRES   REMARKS
ALPENA         FAIR       1  -2  87 W3        30.37F
6HR MIN TEMP:  -2; 6HR MAX TEMP:  10;

BEAVER ISLAND  FAIR      20  10  65 W8        30.36S WCI  10
6HR MIN TEMP:   6; 6HR MAX TEMP:  21;

BELLAIRE       LGT SNOW   7   5  93 CALM      30.40F
6HR MIN TEMP:   1; 6HR MAX TEMP:   7;

CADILLAC       FLURRIES   5   1  85 CALM      30.34F
CHARLEVOIX     LGT SNOW  16  13  89 CALM      30.39F
6HR MIN TEMP:   9; 6HR MAX TEMP:  18;

FRANKFORT      CLOUDY    23  14  68 NW6       30.40F WCI  16
GAYLORD        CLOUDY    -1  -3  91 SW3       30.32F
6HR MIN TEMP:  -4; 6HR MAX TEMP:   8;

GRAYLING       FAIR      -6 -12  77 CALM      30.36F
6HR MIN TEMP:  -7; 6HR MAX TEMP:   4;

HARBOR SPRINGS LGT SNOW   9   5  86 CALM      30.35F
HOUGHTON LAKE  FAIR       2  -1  88 CALM      30.36F
6HR MIN TEMP:   0; 6HR MAX TEMP:  14;

MANISTEE       FLURRIES  16  13  88 CALM      30.42F
OSCODA         FAIR      -1  -7  78 W6        30.39S WCI -13
6HR MIN TEMP:  -6; 6HR MAX TEMP:   6;

PELLSTON       LGT SNOW  -1  -4  87 CALM      30.36F FOG
6HR MIN TEMP:  -8; 6HR MAX TEMP:   3; 6HR PCP: TRACE;

ROGERS CITY    FAIR       6   1  81 SW6       30.37F WCI  -5
TRAVERSE CITY  LGT SNOW  15  10  80 SW5       30.39F WCI   8
6HR MIN TEMP:  14; 6HR MAX TEMP:  17; 6HR PCP: TRACE;

$$
MIZ007>008-015-170700-
EASTERN UPPER MICHIGAN

CITY           SKY/WX    TMP DP  RH WIND       PRES   REMARKS
KINROSS        FLURRIES  10   5  80 SW6       30.32F WCI   0
6HR MIN TEMP:   3; 6HR MAX TEMP:  10;

MACKINAC ISLAN LGT SNOW  13  10  87 S6        30.34F WCI   4
6HR MIN TEMP:   7; 6HR MAX TEMP:  15;

NEWBERRY       FAIR      10   7  85 W8        30.31F WCI  -1
S. S. MARIE    CLOUDY    12   7  80 SW5       30.30F WCI   4
6HR MIN TEMP:   5; 6HR MAX TEMP:  12; 6HR PCP: TRACE;

MUNISING         N/A     12   8  84 SW9       30.32F WCI   0
6HR MIN TEMP:   9; 6HR MAX TEMP:  20;

$$
MIZ004>006-011>014-085-170700-
CENTRAL UPPER MICHIGAN

CITY           SKY/WX    TMP DP  RH WIND       PRES   REMARKS
MANISTIQUE     FAIR      10   7  89 SW5       30.34F WCI   1
6HR MIN TEMP:  10; 6HR MAX TEMP:  15;

ESCANABA       FAIR       6   3  87 W7        30.38F WCI  -6
6HR MIN TEMP:   5; 6HR MAX TEMP:  10;

MENOMINEE      FAIR       7   4  87 W5        30.42F WCI  -2
6HR MIN TEMP:   0; 6HR MAX TEMP:  14;

SAWYER-GWINN   FAIR       5   2  86 SW6       30.29F WCI  -5
6HR MIN TEMP:   3; 6HR MAX TEMP:  11;

$$
MIZ001>003-009>011-084-170700-
WESTERN UPPER MICHIGAN

CITY           SKY/WX    TMP DP  RH WIND       PRES   REMARKS
IRON MOUNTAIN  FAIR       6   1  80 CALM      30.32F
6HR MIN TEMP:  -5; 6HR MAX TEMP:  10;

HOUGHTON       CLOUDY    16   8  71 W20       30.23F WCI  -1
6HR MIN TEMP:  16; 6HR MAX TEMP:  19; 6HR PCP: TRACE;

COPPER HARBOR    N/A     21  12  68 VRB5      30.23F WCI  15
6HR MIN TEMP:  16; 6HR MAX TEMP:  21;

IRONWOOD       CLOUDY     7   1  76 SW10      30.32F WCI  -8
6HR MIN TEMP:   7; 6HR MAX TEMP:  12; 6HR PCP: TRACE;

$$

ABBREVIATIONS USED IN REMARKS
   TC - TEMPERATURE IN CELSIUS
  WCI - WIND CHILL INDEX
   HX - HEAT INDEX
  VSB - VISIBILITY





USA.gov is the U.S. government's official web portal to all federal, state and local government web resources and services.